Year,Month,Day,Hour,Minute,Value (Times are PST for windspeed in km/hr)
2012,02,24,00,00,6.70
2012,02,24,00,01,8.20
2012,02,24,00,02,7.70
2012,02,24,00,03,8.40
2012,02,24,00,04,3.90
2012,02,24,00,05,4.70
2012,02,24,00,06,6.10
2012,02,24,00,07,7.50
2012,02,24,00,08,5.50
2012,02,24,00,09,8.60
2012,02,24,00,10,8.10
2012,02,24,00,11,5.80
2012,02,24,00,12,6.40
2012,02,24,00,13,4.50
2012,02,24,00,14,6.20
2012,02,24,00,15,9.40
2012,02,24,00,16,7.30
2012,02,24,00,17,8.30
2012,02,24,00,18,9.50
2012,02,24,00,19,6.20
2012,02,24,00,20,5.20
2012,02,24,00,21,5.60
2012,02,24,00,22,9.10
2012,02,24,00,23,7.40
2012,02,24,00,24,12.90
2012,02,24,00,25,9.50
2012,02,24,00,26,12.50
2012,02,24,00,27,7.70
2012,02,24,00,28,9.70
2012,02,24,00,29,9.20
2012,02,24,00,30,8.90
2012,02,24,00,31,8.90
2012,02,24,00,32,7.30
2012,02,24,00,33,8.10
2012,02,24,00,34,6.80
2012,02,24,00,35,12.10
2012,02,24,00,36,9.80
2012,02,24,00,37,8.20
2012,02,24,00,38,8.70
2012,02,24,00,39,15.10
2012,02,24,00,40,9.30
2012,02,24,00,41,7.60
2012,02,24,00,42,9.70
2012,02,24,00,43,6.10
2012,02,24,00,44,7.70
2012,02,24,00,45,6.40
2012,02,24,00,46,6.80
2012,02,24,00,47,8.30
2012,02,24,00,48,8.00
2012,02,24,00,49,7.90
2012,02,24,00,50,6.70
2012,02,24,00,51,5.50
2012,02,24,00,52,8.70
2012,02,24,00,53,8.00
2012,02,24,00,54,6.00
2012,02,24,00,55,4.30
2012,02,24,00,56,12.90
2012,02,24,00,57,7.60
2012,02,24,00,58,10.10
2012,02,24,00,59,8.90
2012,02,24,01,00,12.00
2012,02,24,01,01,12.60
2012,02,24,01,02,10.00
2012,02,24,01,03,5.00
2012,02,24,01,04,9.80
2012,02,24,01,05,9.50
2012,02,24,01,06,8.30
2012,02,24,01,07,10.10
2012,02,24,01,08,8.10
2012,02,24,01,09,13.40
2012,02,24,01,10,14.20
2012,02,24,01,11,13.00
2012,02,24,01,12,7.30
2012,02,24,01,13,6.90
2012,02,24,01,14,3.90
2012,02,24,01,15,6.00
2012,02,24,01,16,6.40
2012,02,24,01,17,5.20
2012,02,24,01,18,8.40
2012,02,24,01,19,5.40
2012,02,24,01,20,5.70
2012,02,24,01,21,3.90
2012,02,24,01,22,2.80
2012,02,24,01,23,4.80
2012,02,24,01,24,11.10
2012,02,24,01,25,6.40
2012,02,24,01,26,3.40
2012,02,24,01,27,7.10
2012,02,24,01,28,7.20
2012,02,24,01,29,8.40
2012,02,24,01,30,9.30
2012,02,24,01,31,6.30
2012,02,24,01,32,8.90
2012,02,24,01,33,4.10
2012,02,24,01,34,2.60
2012,02,24,01,35,7.30
2012,02,24,01,36,6.30
2012,02,24,01,37,8.70
2012,02,24,01,38,9.80
2012,02,24,01,39,9.30
2012,02,24,01,40,11.70
2012,02,24,01,41,11.30
2012,02,24,01,42,6.70
2012,02,24,01,43,6.50
2012,02,24,01,44,10.10
2012,02,24,01,45,7.40
2012,02,24,01,46,7.60
2012,02,24,01,47,8.50
2012,02,24,01,48,6.80
2012,02,24,01,49,6.20
2012,02,24,01,50,8.40
2012,02,24,01,51,9.40
2012,02,24,01,52,7.40
2012,02,24,01,53,3.70
2012,02,24,01,54,10.20
2012,02,24,01,55,11.10
2012,02,24,01,56,17.60
2012,02,24,01,57,7.30
2012,02,24,01,58,11.60
2012,02,24,01,59,7.70
2012,02,24,02,00,12.80
2012,02,24,02,01,15.80
2012,02,24,02,02,14.10
2012,02,24,02,03,7.50
2012,02,24,02,04,10.10
2012,02,24,02,05,11.40
2012,02,24,02,06,14.00
2012,02,24,02,07,13.80
2012,02,24,02,08,11.70
2012,02,24,02,09,16.60
2012,02,24,02,10,11.20
2012,02,24,02,11,10.80
2012,02,24,02,12,16.50
2012,02,24,02,13,15.90
2012,02,24,02,14,12.00
2012,02,24,02,15,12.20
2012,02,24,02,16,13.30
2012,02,24,02,17,11.90
2012,02,24,02,18,9.80
2012,02,24,02,19,14.30
2012,02,24,02,20,14.20
2012,02,24,02,21,8.80
2012,02,24,02,22,7.30
2012,02,24,02,23,9.80
2012,02,24,02,24,10.40
2012,02,24,02,25,7.50
2012,02,24,02,26,13.30
2012,02,24,02,27,12.00
2012,02,24,02,28,14.20
2012,02,24,02,29,13.60
2012,02,24,02,30,7.80
2012,02,24,02,31,8.30
2012,02,24,02,32,14.80
2012,02,24,02,33,12.60
2012,02,24,02,34,15.20
2012,02,24,02,35,10.90
2012,02,24,02,36,12.40
2012,02,24,02,37,7.90
2012,02,24,02,38,9.90
2012,02,24,02,39,6.80
2012,02,24,02,40,11.90
2012,02,24,02,41,13.00
2012,02,24,02,42,11.70
2012,02,24,02,43,11.20
2012,02,24,02,44,13.80
2012,02,24,02,45,8.90
2012,02,24,02,46,9.30
2012,02,24,02,47,16.40
2012,02,24,02,48,10.80
2012,02,24,02,49,13.30
2012,02,24,02,50,12.00
2012,02,24,02,51,13.40
2012,02,24,02,52,10.90
2012,02,24,02,53,15.00
2012,02,24,02,54,15.10
2012,02,24,02,55,14.90
2012,02,24,02,56,12.80
2012,02,24,02,57,12.50
2012,02,24,02,58,10.80
2012,02,24,02,59,19.90
2012,02,24,03,00,11.40
2012,02,24,03,01,13.10
2012,02,24,03,02,15.50
2012,02,24,03,03,12.70
2012,02,24,03,04,14.90
2012,02,24,03,05,16.10
2012,02,24,03,06,18.50
2012,02,24,03,07,13.40
2012,02,24,03,08,16.40
2012,02,24,03,09,13.00
2012,02,24,03,10,18.00
2012,02,24,03,11,16.20
2012,02,24,03,12,11.90
2012,02,24,03,13,11.90
2012,02,24,03,14,18.50
2012,02,24,03,15,15.00
2012,02,24,03,16,17.30
2012,02,24,03,17,11.10
2012,02,24,03,18,17.90
2012,02,24,03,19,7.10
2012,02,24,03,20,12.60
2012,02,24,03,21,10.50
2012,02,24,03,22,19.10
2012,02,24,03,23,17.90
2012,02,24,03,24,10.90
2012,02,24,03,25,12.50
2012,02,24,03,26,10.90
2012,02,24,03,27,13.50
2012,02,24,03,28,12.80
2012,02,24,03,29,16.80
2012,02,24,03,30,14.40
2012,02,24,03,31,13.20
2012,02,24,03,32,15.90
2012,02,24,03,33,16.90
2012,02,24,03,34,17.90
2012,02,24,03,35,15.60
2012,02,24,03,36,15.50
2012,02,24,03,37,13.40
2012,02,24,03,38,15.50
2012,02,24,03,39,18.00
2012,02,24,03,40,11.90
2012,02,24,03,41,16.90
2012,02,24,03,42,12.00
2012,02,24,03,43,11.20
2012,02,24,03,44,17.80
2012,02,24,03,45,19.50
2012,02,24,03,46,19.70
2012,02,24,03,47,19.10
2012,02,24,03,48,19.70
2012,02,24,03,49,15.00
2012,02,24,03,50,22.40
2012,02,24,03,51,19.40
2012,02,24,03,52,21.40
2012,02,24,03,53,20.60
2012,02,24,03,54,15.50
2012,02,24,03,55,17.90
2012,02,24,03,56,22.20
2012,02,24,03,57,20.80
2012,02,24,03,58,21.30
2012,02,24,03,59,19.20
2012,02,24,04,00,19.30
2012,02,24,04,01,18.60
2012,02,24,04,02,19.30
2012,02,24,04,03,19.50
2012,02,24,04,04,16.80
2012,02,24,04,05,21.60
2012,02,24,04,06,23.70
2012,02,24,04,07,22.10
2012,02,24,04,08,19.20
2012,02,24,04,09,18.20
2012,02,24,04,10,19.20
2012,02,24,04,11,19.50
2012,02,24,04,12,22.30
2012,02,24,04,13,19.10
2012,02,24,04,14,15.30
2012,02,24,04,15,17.90
2012,02,24,04,16,19.70
2012,02,24,04,17,19.20
2012,02,24,04,18,21.00
2012,02,24,04,19,18.10
2012,02,24,04,20,19.80
2012,02,24,04,21,14.50
2012,02,24,04,22,18.30
2012,02,24,04,23,18.20
2012,02,24,04,24,20.10
2012,02,24,04,25,13.70
2012,02,24,04,26,14.60
2012,02,24,04,27,11.20
2012,02,24,04,28,14.60
2012,02,24,04,29,11.80
2012,02,24,04,30,18.20
2012,02,24,04,31,18.60
2012,02,24,04,32,16.10
2012,02,24,04,33,13.70
2012,02,24,04,34,17.40
2012,02,24,04,35,18.60
2012,02,24,04,36,23.10
2012,02,24,04,37,15.70
2012,02,24,04,38,12.40
2012,02,24,04,39,14.80
2012,02,24,04,40,15.90
2012,02,24,04,41,13.20
2012,02,24,04,42,9.00
2012,02,24,04,43,8.20
2012,02,24,04,44,12.80
2012,02,24,04,45,18.50
2012,02,24,04,46,17.00
2012,02,24,04,47,15.50
2012,02,24,04,48,14.00
2012,02,24,04,49,17.10
2012,02,24,04,50,9.30
2012,02,24,04,51,12.50
2012,02,24,04,52,11.50
2012,02,24,04,53,13.90
2012,02,24,04,54,12.80
2012,02,24,04,55,9.00
2012,02,24,04,56,5.40
2012,02,24,04,57,4.40
2012,02,24,04,58,9.50
2012,02,24,04,59,6.60
2012,02,24,05,00,10.30
2012,02,24,05,01,8.10
2012,02,24,05,02,8.00
2012,02,24,05,03,8.90
2012,02,24,05,04,7.80
2012,02,24,05,05,8.00
2012,02,24,05,06,17.60
2012,02,24,05,07,13.10
2012,02,24,05,08,12.00
2012,02,24,05,09,11.00
2012,02,24,05,10,10.50
2012,02,24,05,11,14.80
2012,02,24,05,12,15.10
2012,02,24,05,13,12.60
2012,02,24,05,14,14.60
2012,02,24,05,15,16.10
2012,02,24,05,16,15.00
2012,02,24,05,17,16.70
2012,02,24,05,18,13.40
2012,02,24,05,19,22.40
2012,02,24,05,20,22.10
2012,02,24,05,21,14.70
2012,02,24,05,22,23.10
2012,02,24,05,23,18.10
2012,02,24,05,24,15.00
2012,02,24,05,25,16.10
2012,02,24,05,26,16.30
2012,02,24,05,27,16.90
2012,02,24,05,28,10.90
2012,02,24,05,29,12.40
2012,02,24,05,30,12.20
2012,02,24,05,31,18.70
2012,02,24,05,32,16.70
2012,02,24,05,33,12.80
2012,02,24,05,34,12.70
2012,02,24,05,35,18.70
2012,02,24,05,36,13.60
2012,02,24,05,37,17.90
2012,02,24,05,38,19.70
2012,02,24,05,39,19.40
2012,02,24,05,40,17.50
2012,02,24,05,41,13.90
2012,02,24,05,42,20.40
2012,02,24,05,43,20.50
2012,02,24,05,44,11.50
2012,02,24,05,45,15.50
2012,02,24,05,46,20.00
2012,02,24,05,47,20.70
2012,02,24,05,48,15.00
2012,02,24,05,49,13.60
2012,02,24,05,50,20.40
2012,02,24,05,51,13.90
2012,02,24,05,52,14.20
2012,02,24,05,53,19.30
2012,02,24,05,54,18.20
2012,02,24,05,55,14.70
2012,02,24,05,56,10.10
2012,02,24,05,57,7.90
2012,02,24,05,58,21.50
2012,02,24,05,59,12.20
2012,02,24,06,00,17.30
2012,02,24,06,01,17.30
2012,02,24,06,02,18.40
2012,02,24,06,03,23.50
2012,02,24,06,04,15.40
2012,02,24,06,05,14.30
2012,02,24,06,06,15.90
2012,02,24,06,07,12.60
2012,02,24,06,08,17.70
2012,02,24,06,09,13.20
2012,02,24,06,10,14.00
2012,02,24,06,11,17.20
2012,02,24,06,12,18.30
2012,02,24,06,13,21.10
2012,02,24,06,14,22.30
2012,02,24,06,15,16.30
2012,02,24,06,16,12.90
2012,02,24,06,17,18.30
2012,02,24,06,18,19.80
2012,02,24,06,19,18.00
2012,02,24,06,20,20.80
2012,02,24,06,21,11.70
2012,02,24,06,22,21.60
2012,02,24,06,23,19.20
2012,02,24,06,24,16.70
2012,02,24,06,25,18.80
2012,02,24,06,26,21.60
2012,02,24,06,27,20.80
2012,02,24,06,28,18.30
2012,02,24,06,29,15.70
2012,02,24,06,30,17.30
2012,02,24,06,31,24.30
2012,02,24,06,32,19.20
2012,02,24,06,33,18.40
2012,02,24,06,34,18.70
2012,02,24,06,35,13.80
2012,02,24,06,36,15.60
2012,02,24,06,37,7.00
2012,02,24,06,38,17.20
2012,02,24,06,39,18.40
2012,02,24,06,40,13.50
2012,02,24,06,41,11.40
2012,02,24,06,42,18.20
2012,02,24,06,43,23.20
2012,02,24,06,44,17.30
2012,02,24,06,45,16.70
2012,02,24,06,46,18.60
2012,02,24,06,47,15.90
2012,02,24,06,48,12.90
2012,02,24,06,49,20.50
2012,02,24,06,50,16.50
2012,02,24,06,51,15.20
2012,02,24,06,52,19.20
2012,02,24,06,53,10.10
2012,02,24,06,54,11.90
2012,02,24,06,55,16.20
2012,02,24,06,56,19.40
2012,02,24,06,57,21.20
2012,02,24,06,58,15.80
2012,02,24,06,59,15.80
2012,02,24,07,00,12.60
2012,02,24,07,01,20.40
2012,02,24,07,02,18.60
2012,02,24,07,03,15.70
2012,02,24,07,04,20.20
2012,02,24,07,05,19.40
2012,02,24,07,06,17.00
2012,02,24,07,07,17.10
2012,02,24,07,08,14.80
2012,02,24,07,09,16.50
2012,02,24,07,10,11.50
2012,02,24,07,11,13.10
2012,02,24,07,12,13.10
2012,02,24,07,13,16.50
2012,02,24,07,14,13.40
2012,02,24,07,15,11.90
2012,02,24,07,16,13.80
2012,02,24,07,17,15.20
2012,02,24,07,18,14.70
2012,02,24,07,19,18.10
2012,02,24,07,20,15.40
2012,02,24,07,21,17.70
2012,02,24,07,22,17.60
2012,02,24,07,23,20.00
2012,02,24,07,24,17.80
2012,02,24,07,25,17.90
2012,02,24,07,26,18.50
2012,02,24,07,27,11.40
2012,02,24,07,28,18.90
2012,02,24,07,29,16.80
2012,02,24,07,30,13.00
2012,02,24,07,31,11.20
2012,02,24,07,32,8.10
2012,02,24,07,33,14.10
2012,02,24,07,34,16.40
2012,02,24,07,35,18.10
2012,02,24,07,36,16.30
2012,02,24,07,37,12.60
2012,02,24,07,38,16.40
2012,02,24,07,39,15.40
2012,02,24,07,40,14.60
2012,02,24,07,41,18.00
2012,02,24,07,42,14.00
2012,02,24,07,43,16.70
2012,02,24,07,44,12.70
2012,02,24,07,45,10.90
2012,02,24,07,46,13.30
2012,02,24,07,47,11.60
2012,02,24,07,48,10.60
2012,02,24,07,49,13.40
2012,02,24,07,50,12.20
2012,02,24,07,51,16.50
2012,02,24,07,52,18.90
2012,02,24,07,53,14.50
2012,02,24,07,54,15.40
2012,02,24,07,55,20.10
2012,02,24,07,56,15.80
2012,02,24,07,57,17.00
2012,02,24,07,58,17.10
2012,02,24,07,59,15.60
2012,02,24,08,00,16.20
2012,02,24,08,01,12.40
2012,02,24,08,02,13.50
2012,02,24,08,03,19.50
2012,02,24,08,04,21.60
2012,02,24,08,05,20.80
2012,02,24,08,06,17.90
2012,02,24,08,07,10.30
2012,02,24,08,08,16.50
2012,02,24,08,09,16.60
2012,02,24,08,10,20.20
2012,02,24,08,11,18.60
2012,02,24,08,12,24.00
2012,02,24,08,13,19.10
2012,02,24,08,14,22.40
2012,02,24,08,15,17.40
2012,02,24,08,16,20.40
2012,02,24,08,17,23.70
2012,02,24,08,18,16.90
2012,02,24,08,19,15.90
2012,02,24,08,20,16.50
2012,02,24,08,21,15.50
2012,02,24,08,22,22.60
2012,02,24,08,23,18.10
2012,02,24,08,24,23.00
2012,02,24,08,25,14.70
2012,02,24,08,26,16.80
2012,02,24,08,27,21.30
2012,02,24,08,28,21.20
2012,02,24,08,29,12.10
2012,02,24,08,30,22.40
2012,02,24,08,31,18.00
2012,02,24,08,32,22.90
2012,02,24,08,33,15.80
2012,02,24,08,34,14.80
2012,02,24,08,35,19.80
2012,02,24,08,36,17.40
2012,02,24,08,37,17.70
2012,02,24,08,38,19.10
2012,02,24,08,39,18.70
2012,02,24,08,40,17.20
2012,02,24,08,41,19.10
2012,02,24,08,42,18.90
2012,02,24,08,43,15.60
2012,02,24,08,44,16.30
2012,02,24,08,45,18.40
2012,02,24,08,46,18.10
2012,02,24,08,47,15.90
2012,02,24,08,48,17.50
2012,02,24,08,49,16.20
2012,02,24,08,50,18.40
2012,02,24,08,51,19.60
2012,02,24,08,52,19.50
2012,02,24,08,53,18.40
2012,02,24,08,54,16.70
2012,02,24,08,55,19.40
2012,02,24,08,56,13.50
2012,02,24,08,57,11.60
2012,02,24,08,58,14.90
2012,02,24,08,59,10.60
2012,02,24,09,00,18.00
2012,02,24,09,01,13.90
2012,02,24,09,02,11.20
2012,02,24,09,03,10.80
2012,02,24,09,04,16.10
2012,02,24,09,05,15.50
2012,02,24,09,06,17.60
2012,02,24,09,07,13.80
2012,02,24,09,08,21.20
2012,02,24,09,09,13.70
2012,02,24,09,10,18.00
2012,02,24,09,11,11.70
2012,02,24,09,12,12.60
2012,02,24,09,13,12.70
2012,02,24,09,14,16.50
2012,02,24,09,15,15.50
2012,02,24,09,16,12.00
2012,02,24,09,17,16.80
2012,02,24,09,18,11.50
2012,02,24,09,19,15.50
2012,02,24,09,20,14.20
2012,02,24,09,21,13.60
2012,02,24,09,22,12.80
2012,02,24,09,23,12.90
2012,02,24,09,24,13.20
2012,02,24,09,25,10.20
2012,02,24,09,26,14.50
2012,02,24,09,27,14.60
2012,02,24,09,28,14.40
2012,02,24,09,29,17.50
2012,02,24,09,30,13.70
2012,02,24,09,31,4.70
2012,02,24,09,32,11.90
2012,02,24,09,33,9.40
2012,02,24,09,34,10.00
2012,02,24,09,35,9.00
2012,02,24,09,36,12.50
2012,02,24,09,37,17.90
2012,02,24,09,38,18.00
2012,02,24,09,39,17.30
2012,02,24,09,40,16.50
2012,02,24,09,41,8.80
2012,02,24,09,42,12.30
2012,02,24,09,43,11.40
2012,02,24,09,44,14.80
2012,02,24,09,45,17.00
2012,02,24,09,46,14.40
2012,02,24,09,47,20.50
2012,02,24,09,48,16.80
2012,02,24,09,49,15.40
2012,02,24,09,50,14.70
2012,02,24,09,51,20.30
2012,02,24,09,52,13.20
2012,02,24,09,53,13.80
2012,02,24,09,54,16.10
2012,02,24,09,55,18.00
2012,02,24,09,56,16.60
2012,02,24,09,57,8.40
2012,02,24,09,58,16.30
2012,02,24,09,59,13.00
2012,02,24,10,00,10.50
2012,02,24,10,01,12.20
2012,02,24,10,02,7.80
2012,02,24,10,03,6.60
2012,02,24,10,04,9.70
2012,02,24,10,05,16.60
2012,02,24,10,06,18.30
2012,02,24,10,07,10.20
2012,02,24,10,08,6.30
2012,02,24,10,09,15.40
2012,02,24,10,10,14.30
2012,02,24,10,11,10.50
2012,02,24,10,12,10.20
2012,02,24,10,13,11.80
2012,02,24,10,14,11.50
2012,02,24,10,15,4.50
2012,02,24,10,16,7.20
2012,02,24,10,17,10.40
2012,02,24,10,18,14.30
2012,02,24,10,19,15.00
2012,02,24,10,20,12.10
2012,02,24,10,21,8.00
2012,02,24,10,22,10.40
2012,02,24,10,23,10.60
2012,02,24,10,24,14.80
2012,02,24,10,25,11.20
2012,02,24,10,26,12.40
2012,02,24,10,27,8.30
2012,02,24,10,28,16.20
2012,02,24,10,29,13.10
2012,02,24,10,30,16.10
2012,02,24,10,31,10.70
2012,02,24,10,32,15.30
2012,02,24,10,33,14.50
2012,02,24,10,34,14.30
2012,02,24,10,35,24.10
2012,02,24,10,36,11.60
2012,02,24,10,37,13.70
2012,02,24,10,38,13.50
2012,02,24,10,39,21.30
2012,02,24,10,40,11.80
2012,02,24,10,41,11.80
2012,02,24,10,42,15.80
2012,02,24,10,43,14.20
2012,02,24,10,44,14.50
2012,02,24,10,45,16.60
2012,02,24,10,46,16.30
2012,02,24,10,47,12.60
2012,02,24,10,48,12.30
2012,02,24,10,49,17.10
2012,02,24,10,50,13.60
2012,02,24,10,51,13.30
2012,02,24,10,52,10.80
2012,02,24,10,53,9.60
2012,02,24,10,54,15.80
2012,02,24,10,55,18.60
2012,02,24,10,56,11.40
2012,02,24,10,57,10.10
2012,02,24,10,58,20.60
2012,02,24,10,59,14.60
2012,02,24,11,00,15.00
2012,02,24,11,01,11.70
2012,02,24,11,02,14.00
2012,02,24,11,03,13.10
2012,02,24,11,04,9.80
2012,02,24,11,05,11.70
2012,02,24,11,06,21.80
2012,02,24,11,07,18.60
2012,02,24,11,08,14.60
2012,02,24,11,09,8.30
2012,02,24,11,10,8.60
2012,02,24,11,11,20.10
2012,02,24,11,12,22.40
2012,02,24,11,13,15.50
2012,02,24,11,14,14.40
2012,02,24,11,15,20.40
2012,02,24,11,16,15.90
2012,02,24,11,17,11.30
2012,02,24,11,18,14.20
2012,02,24,11,19,13.60
2012,02,24,11,20,12.00
2012,02,24,11,21,11.70
2012,02,24,11,22,14.50
2012,02,24,11,23,16.30
2012,02,24,11,24,21.00
2012,02,24,11,25,13.90
2012,02,24,11,26,16.10
2012,02,24,11,27,14.60
2012,02,24,11,28,16.30
2012,02,24,11,29,12.90
2012,02,24,11,30,11.70
2012,02,24,11,31,9.30
2012,02,24,11,32,18.30
2012,02,24,11,33,15.70
2012,02,24,11,34,11.80
2012,02,24,11,35,19.30
2012,02,24,11,36,19.20
2012,02,24,11,37,17.90
2012,02,24,11,38,18.70
2012,02,24,11,39,13.50
2012,02,24,11,40,14.00
2012,02,24,11,41,11.80
2012,02,24,11,42,15.60
2012,02,24,11,43,9.20
2012,02,24,11,44,14.60
2012,02,24,11,45,19.10
2012,02,24,11,46,17.20
2012,02,24,11,47,20.90
2012,02,24,11,48,15.00
2012,02,24,11,49,21.90
2012,02,24,11,50,14.80
2012,02,24,11,51,10.80
2012,02,24,11,52,13.10
2012,02,24,11,53,19.30
2012,02,24,11,54,14.50
2012,02,24,11,55,14.80
2012,02,24,11,56,17.10
2012,02,24,11,57,14.50
2012,02,24,11,58,13.70
2012,02,24,11,59,13.70
2012,02,24,12,00,15.20
2012,02,24,12,01,14.10
2012,02,24,12,02,19.90
2012,02,24,12,03,17.00
2012,02,24,12,04,13.80
2012,02,24,12,05,19.10
2012,02,24,12,06,16.90
2012,02,24,12,07,14.50
2012,02,24,12,08,12.00
2012,02,24,12,09,16.20
2012,02,24,12,10,15.80
2012,02,24,12,11,11.20
2012,02,24,12,12,17.60
2012,02,24,12,13,15.70
2012,02,24,12,14,20.90
2012,02,24,12,15,16.10
2012,02,24,12,16,15.50
2012,02,24,12,17,15.40
2012,02,24,12,18,17.70
2012,02,24,12,19,16.50
2012,02,24,12,20,18.90
2012,02,24,12,21,14.60
2012,02,24,12,22,10.30
2012,02,24,12,23,14.80
2012,02,24,12,24,18.20
2012,02,24,12,25,10.30
2012,02,24,12,26,14.10
2012,02,24,12,27,11.00
2012,02,24,12,28,8.40
2012,02,24,12,29,17.70
2012,02,24,12,30,14.40
2012,02,24,12,31,16.80
2012,02,24,12,32,15.40
2012,02,24,12,33,18.40
2012,02,24,12,34,10.60
2012,02,24,12,35,17.20
2012,02,24,12,36,25.10
2012,02,24,12,37,20.90
2012,02,24,12,38,16.60
2012,02,24,12,39,14.80
2012,02,24,12,40,15.30
2012,02,24,12,41,7.40
2012,02,24,12,42,9.60
2012,02,24,12,43,11.00
2012,02,24,12,44,15.00
2012,02,24,12,45,10.50
2012,02,24,12,46,12.30
2012,02,24,12,47,9.60
2012,02,24,12,48,11.30
2012,02,24,12,49,11.10
2012,02,24,12,50,16.30
2012,02,24,12,51,10.50
2012,02,24,12,52,11.00
2012,02,24,12,53,16.20
2012,02,24,12,54,9.20
2012,02,24,12,55,10.60
2012,02,24,12,56,8.90
2012,02,24,12,57,13.20
2012,02,24,12,58,8.00
2012,02,24,12,59,12.40
2012,02,24,13,00,11.40
2012,02,24,13,01,20.70
2012,02,24,13,02,19.10
2012,02,24,13,03,13.90
2012,02,24,13,04,18.30
2012,02,24,13,05,15.20
2012,02,24,13,06,18.00
2012,02,24,13,07,17.30
2012,02,24,13,08,16.30
2012,02,24,13,09,14.70
2012,02,24,13,10,10.10
2012,02,24,13,11,12.70
2012,02,24,13,12,15.90
2012,02,24,13,13,7.40
2012,02,24,13,14,6.50
2012,02,24,13,15,8.00
2012,02,24,13,16,5.60
2012,02,24,13,17,4.90
2012,02,24,13,18,6.80
2012,02,24,13,19,5.10
2012,02,24,13,20,6.70
2012,02,24,13,21,15.60
2012,02,24,13,22,8.10
2012,02,24,13,23,10.20
2012,02,24,13,24,8.70
2012,02,24,13,25,7.50
2012,02,24,13,26,8.20
2012,02,24,13,27,8.20
2012,02,24,13,28,6.10
2012,02,24,13,29,9.50
2012,02,24,13,30,11.50
2012,02,24,13,31,16.90
2012,02,24,13,32,11.90
2012,02,24,13,33,11.20
2012,02,24,13,34,8.70
2012,02,24,13,35,14.90
2012,02,24,13,36,11.10
2012,02,24,13,37,15.30
2012,02,24,13,38,12.00
2012,02,24,13,39,10.90
2012,02,24,13,40,6.70
2012,02,24,13,41,5.60
2012,02,24,13,42,8.00
2012,02,24,13,43,14.00
2012,02,24,13,44,9.40
2012,02,24,13,45,15.70
2012,02,24,13,46,10.60
2012,02,24,13,47,9.30
2012,02,24,13,48,12.50
2012,02,24,13,49,10.70
2012,02,24,13,50,10.00
2012,02,24,13,51,7.20
2012,02,24,13,52,6.00
2012,02,24,13,53,14.70
2012,02,24,13,54,7.80
2012,02,24,13,55,4.60
2012,02,24,13,56,6.00
2012,02,24,13,57,5.20
2012,02,24,13,58,9.20
2012,02,24,13,59,9.90
2012,02,24,14,00,4.20
2012,02,24,14,01,3.90
2012,02,24,14,02,5.80
2012,02,24,14,03,7.90
2012,02,24,14,04,5.10
2012,02,24,14,05,7.10
2012,02,24,14,06,6.60
2012,02,24,14,07,4.60
2012,02,24,14,08,5.10
2012,02,24,14,09,2.90
2012,02,24,14,10,2.70
2012,02,24,14,11,6.40
2012,02,24,14,12,5.70
2012,02,24,14,13,3.80
2012,02,24,14,14,5.20
2012,02,24,14,15,2.90
2012,02,24,14,16,4.50
2012,02,24,14,17,3.40
2012,02,24,14,18,3.50
2012,02,24,14,19,7.00
2012,02,24,14,20,2.80
2012,02,24,14,21,10.90
2012,02,24,14,22,8.80
2012,02,24,14,23,8.10
2012,02,24,14,24,8.80
2012,02,24,14,25,13.00
2012,02,24,14,26,8.70
2012,02,24,14,27,10.80
2012,02,24,14,28,6.60
2012,02,24,14,29,7.40
2012,02,24,14,30,7.40
2012,02,24,14,31,11.50
2012,02,24,14,32,14.10
2012,02,24,14,33,10.50
2012,02,24,14,34,14.90
2012,02,24,14,35,12.60
2012,02,24,14,36,10.60
2012,02,24,14,37,8.70
2012,02,24,14,38,9.50
2012,02,24,14,39,11.30
2012,02,24,14,40,13.20
2012,02,24,14,41,9.60
2012,02,24,14,42,17.50
2012,02,24,14,43,19.60
2012,02,24,14,44,17.50
2012,02,24,14,45,11.80
2012,02,24,14,46,12.80
2012,02,24,14,47,16.10
2012,02,24,14,48,15.80
2012,02,24,14,49,17.70
2012,02,24,14,50,8.10
2012,02,24,14,51,15.40
2012,02,24,14,52,13.80
2012,02,24,14,53,13.90
2012,02,24,14,54,16.10
2012,02,24,14,55,12.60
2012,02,24,14,56,12.20
2012,02,24,14,57,11.30
2012,02,24,14,58,11.40
2012,02,24,14,59,11.70
2012,02,24,15,00,11.80
2012,02,24,15,01,14.40
2012,02,24,15,02,9.00
2012,02,24,15,03,20.20
2012,02,24,15,04,17.20
2012,02,24,15,05,14.30
2012,02,24,15,06,21.60
2012,02,24,15,07,18.40
2012,02,24,15,08,20.90
2012,02,24,15,09,15.80
2012,02,24,15,10,17.90
2012,02,24,15,11,18.00
2012,02,24,15,12,16.10
2012,02,24,15,13,10.30
2012,02,24,15,14,14.20
2012,02,24,15,15,13.10
2012,02,24,15,16,14.10
2012,02,24,15,17,19.70
2012,02,24,15,18,16.30
2012,02,24,15,19,11.60
2012,02,24,15,20,16.90
2012,02,24,15,21,14.90
2012,02,24,15,22,14.20
2012,02,24,15,23,16.50
2012,02,24,15,24,17.50
2012,02,24,15,25,20.00
2012,02,24,15,26,12.00
2012,02,24,15,27,17.20
2012,02,24,15,28,10.60
2012,02,24,15,29,7.00
2012,02,24,15,30,18.40
2012,02,24,15,31,15.60
2012,02,24,15,32,18.20
2012,02,24,15,33,16.60
2012,02,24,15,34,17.90
2012,02,24,15,35,12.00
2012,02,24,15,36,12.30
2012,02,24,15,37,16.00
2012,02,24,15,38,10.90
2012,02,24,15,39,8.70
2012,02,24,15,40,5.20
2012,02,24,15,41,9.30
2012,02,24,15,42,12.70
2012,02,24,15,43,11.60
2012,02,24,15,44,7.20
2012,02,24,15,45,10.50
2012,02,24,15,46,8.00
2012,02,24,15,47,8.40
2012,02,24,15,48,8.30
2012,02,24,15,49,18.00
2012,02,24,15,50,13.50
2012,02,24,15,51,8.20
2012,02,24,15,52,8.40
2012,02,24,15,53,9.70
2012,02,24,15,54,16.10
2012,02,24,15,55,11.30
2012,02,24,15,56,13.10
2012,02,24,15,57,9.30
2012,02,24,15,58,10.10
2012,02,24,15,59,15.90
2012,02,24,16,00,7.70
2012,02,24,16,01,12.80
2012,02,24,16,02,8.60
2012,02,24,16,03,7.20
2012,02,24,16,04,15.30
2012,02,24,16,05,12.10
2012,02,24,16,06,10.30
2012,02,24,16,07,10.30
2012,02,24,16,08,11.30
2012,02,24,16,09,8.90
2012,02,24,16,10,13.50
2012,02,24,16,11,10.90
2012,02,24,16,12,8.70
2012,02,24,16,13,7.00
2012,02,24,16,14,6.90
2012,02,24,16,15,12.30
2012,02,24,16,16,7.40
2012,02,24,16,17,12.60
2012,02,24,16,18,9.20
2012,02,24,16,19,11.10
2012,02,24,16,20,13.00
2012,02,24,16,21,11.30
2012,02,24,16,22,5.30
2012,02,24,16,23,4.40
2012,02,24,16,24,8.90
2012,02,24,16,25,10.80
2012,02,24,16,26,11.90
2012,02,24,16,27,19.40
2012,02,24,16,28,8.00
2012,02,24,16,29,8.00
2012,02,24,16,30,8.90
2012,02,24,16,31,9.30
2012,02,24,16,32,6.10
2012,02,24,16,33,6.60
2012,02,24,16,34,6.00
2012,02,24,16,35,7.20
2012,02,24,16,36,8.10
2012,02,24,16,37,6.60
2012,02,24,16,38,3.60
2012,02,24,16,39,6.80
2012,02,24,16,40,8.00
2012,02,24,16,41,7.40
2012,02,24,16,42,11.20
2012,02,24,16,43,11.70
2012,02,24,16,44,9.10
2012,02,24,16,45,10.50
2012,02,24,16,46,6.90
2012,02,24,16,47,7.80
2012,02,24,16,48,11.50
2012,02,24,16,49,8.50
2012,02,24,16,50,10.70
2012,02,24,16,51,5.50
2012,02,24,16,52,7.60
2012,02,24,16,53,7.50
2012,02,24,16,54,8.00
2012,02,24,16,55,5.10
2012,02,24,16,56,6.20
2012,02,24,16,57,5.60
2012,02,24,16,58,10.10
2012,02,24,16,59,9.00
2012,02,24,17,00,4.20
2012,02,24,17,01,2.10
2012,02,24,17,02,6.00
2012,02,24,17,03,6.70
2012,02,24,17,04,6.70
2012,02,24,17,05,8.60
2012,02,24,17,06,9.30
2012,02,24,17,07,6.70
2012,02,24,17,08,6.50
2012,02,24,17,09,8.70
2012,02,24,17,10,6.00
2012,02,24,17,11,11.60
2012,02,24,17,12,6.40
2012,02,24,17,13,4.80
2012,02,24,17,14,5.40
2012,02,24,17,15,7.00
2012,02,24,17,16,6.70
2012,02,24,17,17,8.90
2012,02,24,17,18,12.50
2012,02,24,17,19,12.50
2012,02,24,17,20,11.80
2012,02,24,17,21,9.30
2012,02,24,17,22,5.60
2012,02,24,17,23,2.60
2012,02,24,17,24,9.30
2012,02,24,17,25,9.30
2012,02,24,17,26,7.40
2012,02,24,17,27,11.30
2012,02,24,17,28,8.50
2012,02,24,17,29,4.40
2012,02,24,17,30,6.90
2012,02,24,17,31,6.00
2012,02,24,17,32,3.90